| time (UTC) | temp C | wind direction | speed KPH | gust KPH | rain 1hr cm | rain 24hr cm | rain mn cm | humidity % | barometer mb |
| 20260510083055 | 10 | 0.0 | 0.0 | 0.00 | 0.33 | 0.00 | 96 | 997.6 | |
| 20260510082015 | 10 | 0.0 | 0.0 | 0.00 | 0.33 | 0.00 | 96 | 997.5 | |
| 20260510081035 | 10 | 0.0 | 0.0 | 0.00 | 0.33 | 0.00 | 96 | 997.7 | |
| 20260510080015 | 10 | 0.0 | 0.0 | 0.00 | 0.33 | 0.00 | 96 | 997.8 | |
| 20260510075015 | 10 | 0.0 | 0.0 | 0.00 | 0.33 | 0.00 | 96 | 997.7 | |
| 20260510074015 | 10 | 0.0 | 0.0 | 0.00 | 0.33 | 0.00 | 96 | 997.9 | |
| 20260510073036 | 10 | 0.0 | 0.0 | 0.00 | 0.33 | 0.00 | 95 | 998.2 | |
| 20260510072015 | 10 | 0.0 | 0.0 | 0.00 | 0.33 | 0.00 | 95 | 997.9 | |
| 20260510071015 | 10 | 0.0 | 8.0 | 0.00 | 0.33 | 0.00 | 95 | 998.1 | |
| 20260510070028 | 10 | 0.0 | 3.2 | 0.00 | 0.33 | 0.00 | 95 | 998.2 | |
| 20260510065017 | 10 | 0.0 | 0.0 | 0.00 | 0.33 | 0.00 | 95 | 997.4 | |
| 20260510064037 | 10 | 0.0 | 0.0 | 0.00 | 0.33 | 0.00 | 95 | 997.3 | |
| 20260510063017 | 10 | 0.0 | 0.0 | 0.00 | 0.33 | 0.00 | 95 | 997.4 | |
| 20260510062017 | 10 | 0.0 | 0.0 | 0.00 | 0.33 | 0.00 | 95 | 997.5 | |
| 20260510061017 | 10 | 0.0 | 0.0 | 0.00 | 0.33 | 0.00 | 95 | 997.7 | |
| 20260510060017 | 10 | 0.0 | 0.0 | 0.00 | 0.33 | 0.00 | 95 | 997.7 | |
| 20260510055017 | 9 | 0.0 | 0.0 | 0.00 | 0.33 | 0.00 | 95 | 997.8 | |
| 20260510054017 | 9 | 0.0 | 1.6 | 0.00 | 0.33 | 0.00 | 94 | 997.8 | |
| 20260510053017 | 8 | 0.0 | 0.0 | 0.00 | 0.33 | 0.00 | 94 | 997.4 | |
| 20260510052037 | 8 | 0.0 | 0.0 | 0.00 | 0.33 | 0.00 | 93 | 997.2 | |
| 20260510051017 | 9 | 0.0 | 0.0 | 0.00 | 0.33 | 0.00 | 93 | 997.2 | |
| 20260510050017 | 9 | 0.0 | 0.0 | 0.00 | 0.33 | 0.00 | 93 | 997.2 | |
| 20260510045017 | 9 | 0.0 | 0.0 | 0.00 | 0.33 | 0.00 | 93 | 997.3 | |
| 20260510044017 | 10 | 0.0 | 0.0 | 0.00 | 0.33 | 0.00 | 93 | 997.4 | |
| 20260510043017 | 10 | 0.0 | 0.0 | 0.00 | 0.33 | 0.00 | 93 | 997.4 | |
| 20260510042017 | 10 | 0.0 | 0.0 | 0.00 | 0.33 | 0.00 | 93 | 997.5 | |
| 20260510041017 | 10 | 0.0 | 0.0 | 0.00 | 0.33 | 0.00 | 93 | 997.5 | |
| 20260510040017 | 10 | 0.0 | 0.0 | 0.00 | 0.33 | 0.33 | 93 | 997.4 | |
| 20260510035016 | 10 | 0.0 | 0.0 | 0.00 | 0.33 | 0.33 | 93 | 997.4 | |
| 20260510034016 | 10 | 0.0 | 0.0 | 0.00 | 0.33 | 0.33 | 92 | 997.4 | |
| 20260510033016 | 10 | 0.0 | 0.0 | 0.00 | 0.33 | 0.33 | 92 | 997.3 | |
| 20260510032016 | 10 | 0.0 | 0.0 | 0.00 | 0.33 | 0.33 | 92 | 997.2 | |
| 20260510031036 | 10 | 0.0 | 0.0 | 0.00 | 0.33 | 0.33 | 92 | 997.1 | |
| 20260510030016 | 10 | 0.0 | 0.0 | 0.00 | 0.33 | 0.33 | 92 | 997.2 | |
| 20260510025016 | 10 | 0.0 | 0.0 | 0.00 | 0.33 | 0.33 | 92 | 997.3 | |
| 20260510024016 | 10 | 0.0 | 0.0 | 0.00 | 0.33 | 0.33 | 91 | 997.2 | |
| 20260510023016 | 10 | 0.0 | 0.0 | 0.00 | 0.33 | 0.33 | 91 | 997.1 | |
| 20260510022016 | 11 | 0.0 | 0.0 | 0.00 | 0.33 | 0.33 | 91 | 997.1 | |
| 20260510021016 | 11 | 0.0 | 0.0 | 0.00 | 0.33 | 0.33 | 91 | 997.1 | |
| 20260510020056 | 11 | 0.0 | 0.0 | 0.00 | 0.33 | 0.33 | 90 | 997.0 | |
| 20260510015016 | 11 | 0.0 | 0.0 | 0.00 | 0.33 | 0.33 | 89 | 996.8 | |
| 20260510014056 | 11 | 0.0 | 0.0 | 0.00 | 0.33 | 0.33 | 89 | 996.8 | |
| 20260510013016 | 11 | 0.0 | 0.0 | 0.00 | 0.33 | 0.33 | 88 | 996.9 | |
| 20260510012016 | 12 | 0.0 | 0.0 | 0.00 | 0.33 | 0.33 | 87 | 996.8 | |
| 20260510011036 | 12 | 0.0 | 0.0 | 0.00 | 0.33 | 0.33 | 86 | 996.7 | |
| 20260510010016 | 12 | 0.0 | 0.0 | 0.00 | 0.33 | 0.33 | 86 | 996.6 | |
| 20260510005016 | 13 | 0.0 | 0.0 | 0.00 | 0.33 | 0.33 | 84 | 996.5 | |
| 20260510004016 | 13 | 0.0 | 0.0 | 0.00 | 0.33 | 0.33 | 83 | 996.4 | |
| 20260510003036 | 13 | 0.0 | 0.0 | 0.00 | 0.33 | 0.33 | 82 | 996.3 | |
| 20260510002016 | 14 | 0.0 | 0.0 | 0.00 | 0.33 | 0.33 | 81 | 996.1 | |
| 20260510001016 | 15 | 0.0 | 0.0 | 0.00 | 0.33 | 0.33 | 80 | 996.0 | |
| 20260510000016 | 15 | 0.0 | 0.0 | 0.00 | 0.33 | 0.33 | 78 | 995.8 | |
| 20260509235036 | 16 | 0.0 | 0.0 | 0.00 | 0.33 | 0.33 | 76 | 995.9 | |
| 20260509234016 | 16 | 0.0 | 0.0 | 0.00 | 0.33 | 0.33 | 74 | 995.8 | |
| 20260509233016 | 16 | 0.0 | 3.2 | 0.00 | 0.33 | 0.33 | 74 | 995.9 | |
| 20260509232016 | 16 | 0.0 | 0.0 | 0.00 | 0.33 | 0.33 | 74 | 995.8 | |
| 20260509231015 | 17 | 0.0 | 0.0 | 0.00 | 0.33 | 0.33 | 73 | 995.9 | |
| 20260509230015 | 17 | 0.0 | 0.0 | 0.00 | 0.33 | 0.33 | 73 | 995.8 | |
| 20260509225016 | 17 | 0.0 | 0.0 | 0.00 | 0.33 | 0.33 | 75 | 995.8 | |
| 20260509224016 | 16 | 0.0 | 0.0 | 0.00 | 0.33 | 0.33 | 78 | 995.7 | |
| 20260509223016 | 16 | 0.0 | 0.0 | 0.00 | 0.33 | 0.33 | 78 | 995.8 | |
| 20260509222015 | 16 | 0.0 | 0.0 | 0.00 | 0.33 | 0.33 | 81 | 995.9 | |
| 20260509221035 | 15 | 0.0 | 0.0 | 0.00 | 0.33 | 0.33 | 84 | 996.0 | |
| 20260509220015 | 15 | 0.0 | 0.0 | 0.00 | 0.33 | 0.33 | 84 | 996.1 | |
| 20260509215015 | 15 | 0.0 | 0.0 | 0.00 | 0.33 | 0.33 | 85 | 996.1 | |
| 20260509214015 | 14 | 0.0 | 0.0 | 0.00 | 0.33 | 0.33 | 86 | 995.9 | |
| 20260509213015 | 14 | 0.0 | 0.0 | 0.00 | 0.33 | 0.33 | 87 | 996.0 | |
| 20260509212016 | 14 | 0.0 | 0.0 | 0.00 | 0.33 | 0.33 | 87 | 996.0 | |
| 20260509211016 | 13 | 0.0 | 0.0 | 0.00 | 0.33 | 0.33 | 89 | 996.2 | |
| 20260509210035 | 13 | 0.0 | 0.0 | 0.00 | 0.33 | 0.33 | 88 | 996.4 | |
| 20260509205015 | 13 | 0.0 | 3.2 | 0.00 | 0.33 | 0.33 | 89 | 996.5 | |
| 20260509204015 | 13 | 0.0 | 1.6 | 0.00 | 0.33 | 0.33 | 89 | 996.5 | |
| 20260509203015 | 13 | 0.0 | 1.6 | 0.00 | 0.33 | 0.33 | 91 | 996.7 | |
| 20260509202035 | 13 | 0.0 | 0.0 | 0.00 | 0.33 | 0.33 | 90 | 996.6 | |
| 20260509201035 | 13 | 0.0 | 0.0 | 0.00 | 0.33 | 0.33 | 91 | 996.6 | |
| 20260509200015 | 13 | 0.0 | 0.0 | 0.03 | 0.33 | 0.33 | 91 | 996.6 | |
| 20260509195035 | 13 | 0.0 | 0.0 | 0.03 | 0.33 | 0.33 | 91 | 996.6 | |
| 20260509194035 | 13 | 0.0 | 0.0 | 0.05 | 0.33 | 0.33 | 92 | 996.7 | |
| 20260509193015 | 13 | 0.0 | 0.0 | 0.08 | 0.33 | 0.33 | 92 | 996.9 | |
| 20260509192018 | 12 | 0.0 | 0.0 | 0.08 | 0.33 | 0.33 | 92 | 997.0 | |
| 20260509191037 | 13 | 0.0 | 3.2 | 0.10 | 0.33 | 0.33 | 92 | 997.2 | |
| 20260509190017 | 12 | 0.0 | 4.8 | 0.08 | 0.30 | 0.30 | 91 | 997.6 | |
| 20260509185017 | 12 | 0.0 | 3.2 | 0.08 | 0.30 | 0.30 | 91 | 997.9 | |
| 20260509184017 | 12 | 0.0 | 1.6 | 0.08 | 0.28 | 0.28 | 91 | 997.7 | |
| 20260509183017 | 12 | 0.0 | 1.6 | 0.05 | 0.25 | 0.25 | 91 | 998.0 | |
| 20260509182017 | 12 | 0.0 | 0.0 | 0.08 | 0.25 | 0.25 | 90 | 997.8 | |
| 20260509181017 | 13 | 0.0 | 3.2 | 0.08 | 0.23 | 0.23 | 90 | 998.0 | |
| 20260509180017 | 13 | 0.0 | 1.6 | 0.15 | 0.23 | 0.23 | 90 | 997.9 | |
| 20260509175017 | 12 | 0.0 | 1.6 | 0.18 | 0.23 | 0.23 | 90 | 997.8 | |
| 20260509174037 | 12 | 0.0 | 1.6 | 0.18 | 0.20 | 0.20 | 89 | 997.8 | |
| 20260509173037 | 12 | 0.0 | 3.2 | 0.18 | 0.20 | 0.20 | 89 | 997.7 | |
| 20260509172017 | 12 | 203 | 1.6 | 6.4 | 0.18 | 0.18 | 0.18 | 88 | 997.7 |
| 20260509171037 | 13 | 0.0 | 3.2 | 0.15 | 0.15 | 0.15 | 86 | 997.4 | |
| 20260509170037 | 13 | 0.0 | 3.2 | 0.08 | 0.08 | 0.08 | 85 | 997.8 | |
| 20260509165017 | 14 | 135 | 1.6 | 14.5 | 0.05 | 0.05 | 0.05 | 85 | 998.1 |
| 20260509164017 | 15 | 0.0 | 0.0 | 0.03 | 0.03 | 0.03 | 85 | 998.1 | |
| 20260509163017 | 15 | 0.0 | 3.2 | 0.03 | 0.03 | 0.03 | 83 | 998.0 | |
| 20260509162017 | 15 | 0.0 | 1.6 | 0.00 | 0.00 | 0.00 | 80 | 998.1 | |
| 20260509161017 | 15 | 113 | 1.6 | 6.4 | 0.00 | 0.00 | 0.00 | 79 | 998.1 |
| 20260509160017 | 15 | 0.0 | 0.0 | 0.00 | 0.00 | 0.00 | 79 | 998.1 | |
| 20260509155017 | 15 | 113 | 3.2 | 11.3 | 0.00 | 0.00 | 0.00 | 77 | 998.2 |
| 20260509154017 | 15 | 90 | 1.6 | 4.8 | 0.00 | 0.00 | 0.00 | 78 | 998.2 |
| 20260509153037 | 15 | 0.0 | 3.2 | 0.00 | 0.00 | 0.00 | 79 | 998.2 | |
| 20260509152017 | 15 | 0.0 | 4.8 | 0.00 | 0.00 | 0.00 | 79 | 998.2 | |
| 20260509151017 | 14 | 68 | 1.6 | 8.0 | 0.00 | 0.00 | 0.00 | 79 | 998.2 |
| 20260509150017 | 14 | 90 | 1.6 | 4.8 | 0.00 | 0.00 | 0.00 | 79 | 998.2 |
| 20260509145037 | 14 | 0.0 | 0.0 | 0.00 | 0.00 | 0.00 | 79 | 998.0 | |
| 20260509144037 | 14 | 0.0 | 0.0 | 0.00 | 0.00 | 0.00 | 78 | 997.9 | |
| 20260509143017 | 14 | 0.0 | 0.0 | 0.00 | 0.00 | 0.00 | 79 | 998.1 | |
| 20260509142017 | 14 | 0.0 | 0.0 | 0.00 | 0.00 | 0.00 | 79 | 998.1 | |
| 20260509141037 | 14 | 0.0 | 0.0 | 0.00 | 0.00 | 0.00 | 80 | 998.0 | |
| 20260509140017 | 14 | 0.0 | 0.0 | 0.00 | 0.00 | 0.00 | 79 | 998.0 | |
| 20260509135017 | 14 | 0.0 | 0.0 | 0.00 | 0.00 | 0.00 | 79 | 998.0 | |
| 20260509134037 | 13 | 113 | 1.6 | 9.7 | 0.00 | 0.00 | 0.00 | 78 | 997.9 |
| 20260509133016 | 13 | 0.0 | 3.2 | 0.00 | 0.00 | 0.00 | 79 | 997.8 | |
| 20260509132017 | 13 | 45 | 1.6 | 9.7 | 0.00 | 0.00 | 0.00 | 79 | 998.0 |
| 20260509131016 | 13 | 0.0 | 1.6 | 0.00 | 0.00 | 0.00 | 80 | 997.9 | |
| 20260509130017 | 13 | 0.0 | 1.6 | 0.00 | 0.00 | 0.00 | 80 | 997.8 | |
| 20260509125016 | 13 | 0.0 | 0.0 | 0.00 | 0.00 | 0.00 | 81 | 997.8 | |
| 20260509124017 | 13 | 0.0 | 0.0 | 0.00 | 0.00 | 0.00 | 80 | 997.9 | |
| 20260509123016 | 12 | 0.0 | 0.0 | 0.00 | 0.00 | 0.00 | 80 | 998.0 | |
| 20260509122016 | 12 | 0.0 | 0.0 | 0.00 | 0.00 | 0.00 | 80 | 998.2 | |
| 20260509121017 | 12 | 0.0 | 0.0 | 0.00 | 0.00 | 0.00 | 81 | 998.2 | |
| 20260509120016 | 12 | 0.0 | 0.0 | 0.00 | 0.00 | 0.00 | 81 | 998.1 | |
| 20260509115016 | 12 | 0.0 | 0.0 | 0.00 | 0.00 | 0.00 | 83 | 998.0 | |
| 20260509114016 | 11 | 0.0 | 0.0 | 0.00 | 0.00 | 0.00 | 84 | 997.9 | |
| 20260509113016 | 11 | 0.0 | 0.0 | 0.00 | 0.00 | 0.00 | 84 | 997.9 | |
| 20260509112016 | 11 | 0.0 | 0.0 | 0.00 | 0.00 | 0.00 | 84 | 997.8 | |
| 20260509111036 | 11 | 0.0 | 0.0 | 0.00 | 0.00 | 0.00 | 84 | 997.9 | |
| 20260509110016 | 11 | 0.0 | 0.0 | 0.00 | 0.00 | 0.00 | 85 | 997.8 | |
| 20260509105016 | 11 | 0.0 | 4.8 | 0.00 | 0.00 | 0.00 | 85 | 997.8 | |
| 20260509104016 | 11 | 0.0 | 0.0 | 0.00 | 0.00 | 0.00 | 84 | 997.5 | |
| 20260509103016 | 11 | 0.0 | 1.6 | 0.00 | 0.00 | 0.00 | 84 | 997.6 | |
| 20260509102016 | 10 | 0.0 | 1.6 | 0.00 | 0.00 | 0.00 | 85 | 997.5 | |
| 20260509101016 | 10 | 0.0 | 0.0 | 0.00 | 0.00 | 0.00 | 85 | 997.6 | |
| 20260509100016 | 10 | 0.0 | 0.0 | 0.00 | 0.00 | 0.00 | 86 | 997.4 | |
| 20260509095016 | 10 | 0.0 | 0.0 | 0.00 | 0.00 | 0.00 | 86 | 997.6 | |
| 20260509094016 | 10 | 0.0 | 0.0 | 0.00 | 0.00 | 0.00 | 87 | 997.7 | |
| 20260509093016 | 10 | 0.0 | 0.0 | 0.00 | 0.00 | 0.00 | 87 | 997.8 | |
| 20260509092016 | 10 | 0.0 | 0.0 | 0.00 | 0.00 | 0.00 | 87 | 997.8 | |
| 20260509091016 | 10 | 0.0 | 0.0 | 0.00 | 0.00 | 0.00 | 87 | 997.8 | |
| 20260509090016 | 10 | 0.0 | 0.0 | 0.00 | 0.00 | 0.00 | 86 | 997.7 | |
| 20260509085016 | 10 | 0.0 | 0.0 | 0.00 | 0.00 | 0.00 | 86 | 997.8 | |
| 20260509084016 | 10 | 0.0 | 0.0 | 0.00 | 0.00 | 0.00 | 87 | 998.1 |